Location: Treviso
(45.6669°N, 12.2430°E)
Time: 19:58:56
(UTC+01:00)

ISS - Pass Details

Date: 23 September 2018
Orbit: 401 x 409 km, 51.6° (Epoch: 18 November)

Event Time Altitude Azimuth Distance (km) Brightness Sun altitude
Rises 19:18:38 0° 191° (SSW) 2,332 0.2 -2.9°
Reaches altitude 10° 19:21:32 10° 163° (SSE) 1,476 -1.2 -3.4°
Maximum altitude 19:23:12 13° 133° (SE) 1,295 -1.7 -3.6°
Drops below altitude 10° 19:24:52 10° 103° (ESE) 1,480 -1.6 -3.9°
Enters shadow 19:26:20 - 85° (E) 1,866 -1.1 -4.2°
